Other Public Products
Issued by NWS Grand Forks, ND

Home | Current Version | Previous Version | Graphics & Text | Print | Product List | Glossary On
Versions: 1 2 3 4 5 6 7 8 9 10 11 12 13 14 15 16 17 18 19 20 21 22 23 24 25 26 27 28 29 30 31 32 33 34 35 36 37 38 39 40 41 42 43 44 45 46 47 48 49 50
000
FPUS83 KFGF 250610
OPUFGF
PRAIRIE TO PINES WEATHER ROUNDUP
NATIONAL WEATHER SERVICE EASTERN NORTH DAKOTA/GRAND FORKS ND
100 AM CDT WED APR 25 2018

 **SATELLITE DATA USED TO AUGMENT SKY COVER AT AUTOMATED STATIONS**
 *****  WEATHER ACROSS EASTERN NORTH DAKOTA  *****

CITY           SKY/WX    TMP DP  RH WIND       PRES   REMARKS
GRAND FORKS    FAIR      31  30  96 S7        30.29F WCI  24
6HR MIN TEMP:  29; 6HR MAX TEMP:  51;

GRND FORKS AFB NOT AVBL
GRND FORKS NWS   N/A     37  30  75 SW5       30.27F
BUXTON           N/A     40  36  85 SW5         N/A
DEVILS LAKE    FAIR      32  27  81 CALM      30.28F
6HR MIN TEMP:  32; 6HR MAX TEMP:  53;

FARGO          FAIR      32  27  81 CALM      30.32F
6HR MIN TEMP:  32; 6HR MAX TEMP:  52;

WAHPETON ARPT  FAIR      36  28  75 N6        30.32S
$$

 *****  WEATHER ACROSS CENTRAL AND WESTERN NORTH DAKOTA  *****

CITY           SKY/WX    TMP DP  RH WIND       PRES   REMARKS
JAMESTOWN      FAIR      31  26  82 S6        30.31F
6HR MIN TEMP:  31; 6HR MAX TEMP:  54;

BISMARCK       FAIR      39  27  62 SW6       30.32F
6HR MIN TEMP:  37; 6HR MAX TEMP:  59;

MINOT          FAIR      48  22  35 SW8       30.23F
6HR MIN TEMP:  46; 6HR MAX TEMP:  60;

MINOT AFB      NOT AVBL
GARRISON         N/A     35  26  69 S3        30.27F
6HR MIN TEMP:  35; 6HR MAX TEMP:  55;

WILLISTON      FAIR      46  34  62 SW8       30.23F
6HR MIN TEMP:  45; 6HR MAX TEMP:  62;

DICKINSON      FAIR      38  27  64 SW12      30.28F
6HR MIN TEMP:  38; 6HR MAX TEMP:  56;

HETTINGER      FAIR      32  26  78 CALM      30.35F
6HR MIN TEMP:  31; 6HR MAX TEMP:  53;

$$

 *****  OTHER OBSERVATIONS NORTHEAST NORTH DAKOTA  *****

CITY           SKY/WX    TMP DP  RH WIND       PRES   REMARKS
WALHALLA       NOT AVBL
LANGDON        FAIR      36  30  80 S14       30.25F
CAVALIER         N/A     37  27  65 S7        30.26F
GRAFTON        FAIR      32  27  80 S9        30.30F WCI  24
CANDO          FAIR      39  28  65 S12       30.27F
FORT TOTTEN    NOT AVBL
ROLLA          FAIR      37  27  65 S10       30.23F
RUGBY          FAIR      37  27  65 S10       30.24F
 ***** THE ABOVE OBSERVATIONS ARE NON NWS ARE NOT QUALITY
        CONTROLLED AND MAY MIS-REPORT RAIN FOR SNOW...
$$

 *****  OTHER OBSERVATIONS SOUTHEAST NORTH DAKOTA *****

CITY           SKY/WX    TMP DP  RH WIND       PRES   REMARKS
COOPERSTOWN    NOT AVBL
VALLEY CITY    FAIR      36  36 100 SW5       30.33F
OAKES            N/A     36  34  93 CALM      30.33F
GWINNER          N/A     39  30  70 CALM      30.33S
SHEYENNE NWR     N/A     31  31  99 NW3       29.95S
BUFFALO          N/A     41  27  57 CALM        N/A
WYNDMERE       NOT AVBL
 ***** THE ABOVE OBSERVATIONS ARE NON NWS ARE NOT QUALITY
       CONTROLLED AND MAY MIS-REPORT RAIN FOR SNOW...
$$

  *****  WEATHER ACROSS NORTHERN MINNESOTA  *****

CITY           SKY/WX    TMP DP  RH WIND       PRES   REMARKS
FLAG ISLAND    FAIR      28  21  74 SE5       30.26F WCI  23
WARROAD        FAIR      32  27  80 S3        30.28F
ROSEAU         FAIR      34  27  75 S7        30.28F
HALLOCK        FAIR      30  21  69 S7        30.27F WCI  23
THF RVR FALLS  FAIR      31  27  85 SE3       30.30F
6HR MIN TEMP:  31; 6HR MAX TEMP:  49;

HALSTAD        NOT AVBL
FOSSTON        FAIR      27  16  63 CALM      30.32S
BAUDETTE       FAIR      29  24  82 S3        30.29S
6HR MIN TEMP:  28; 6HR MAX TEMP:  43;

WASKISH        FAIR      27  23  86 CALM      30.30F
CROOKSTON      FAIR      32  28  86 S6        30.31F
$$
  *****  WEATHER ACROSS CENTRAL AND WEST MINNESOTA  *****

CITY           SKY/WX    TMP DP  RH WIND       PRES   REMARKS
BEMIDJI        FAIR      25  19  77 CALM      30.30F
6HR MIN TEMP:  25; 6HR MAX TEMP:  45;

PARK RAPIDS    FAIR      30  22  72 CALM      30.30S
6HR MIN TEMP:  30; 6HR MAX TEMP:  52;

WADENA         FAIR      34  25  69 N3        30.31S
DETROIT LAKES  FAIR      34  30  86 CALM      30.32S
MOORHEAD       FAIR      37  27  65 CALM      30.33S
FERGUS FALLS   FAIR      36  27  69 CALM      30.30S
ELBOW LAKE     FAIR      33  28  80 NE3       30.31S
MORRIS MN      FAIR      34  28  80 N8        30.29S
STAPLES        FAIR      28  23  80 CALM      30.31R
WHEATON        FAIR      36  28  75 NW3       30.34S
$$
  *****  WEATHER ELSEWHERE ACROSS MINNESOTA  *****

CITY           SKY/WX    TMP DP  RH WIND       PRES   REMARKS
DULUTH         FAIR      32  21  64 NW6       30.27S
6HR MIN TEMP:  32; 6HR MAX TEMP:  51;

INTRNTL FALLS  FAIR      24  21  88 CALM      30.29F
6HR MIN TEMP:  23; 6HR MAX TEMP:  43;

ELY            FAIR      27  21  80 CALM      30.28S
CLOQUET        FAIR      32  19  59 NW5       30.28S
BRAINERD       FAIR      35  23  61 N7        30.30S
6HR MIN TEMP:  33; 6HR MAX TEMP:  53;

HIBBING        FAIR      24  20  84 NW6       30.28S WCI  17
6HR MIN TEMP:  24; 6HR MAX TEMP:  45;

ALEXANDRIA     FAIR      40  25  55 NE10      30.30S
6HR MIN TEMP:  39; 6HR MAX TEMP:  53;

SAINT CLOUD    FAIR      38  28  67 N9        30.27S
6HR MIN TEMP:  38; 6HR MAX TEMP:  57;

MINNEAPOLIS    FAIR      46  28  49 N13       30.24R
6HR MIN TEMP:  46; 6HR MAX TEMP:  56;

$$

  *****  WEATHER ACROSS SOUTH DAKOTA  *****

CITY           SKY/WX    TMP DP  RH WIND       PRES   REMARKS
SIOUX FALLS    FAIR      39  31  72 N13       30.29S
6HR MIN TEMP:  39; 6HR MAX TEMP:  46;

BROOKINGS      FAIR      34  30  85 N7        30.31S
WATERTOWN      FAIR      31  28  89 NW3       30.31F
6HR MIN TEMP:  31; 6HR MAX TEMP:  49;

HURON          FAIR      32  30  92 NW5       30.34F
6HR MIN TEMP:  31; 6HR MAX TEMP:  49;

SISSETON         N/A     34  29  82 NW8       30.31F
ABERDEEN       FAIR      29  26  89 W3        30.35F
6HR MIN TEMP:  29; 6HR MAX TEMP:  55;

MITCHELL       FAIR      37  33  85 W5        30.34S
PIERRE         FAIR      35  28  75 W6        30.35F
6HR MIN TEMP:  34; 6HR MAX TEMP:  54;

MOBRIDGE       FAIR      36  28  73 SE3       30.32F
RAPID CITY     FAIR      30  22  72 W6        30.39F WCI  24
6HR MIN TEMP:  29; 6HR MAX TEMP:  50;

$$

  *****  SOME WEATHER IN NEARBY STATES *****

CITY           SKY/WX    TMP DP  RH WIND       PRES   REMARKS
GLASGOW MT     FAIR      45  30  55 SE9       30.18F
6HR MIN TEMP:  43; 6HR MAX TEMP:  65;

GREAT FALLS MT FAIR      46  23  40 S18       30.17F
6HR MIN TEMP:  44; 6HR MAX TEMP:  64;

CHEYENNE WY    FAIR      30  25  81 W7        30.41S WCI  23
6HR MIN TEMP:  30; 6HR MAX TEMP:  36;

SCOTTSBLUFF NE MOCLDY    31  29  92 N6        30.43S
6HR MIN TEMP:  29; 6HR MAX TEMP:  44;

OMAHA NE       CLOUDY    50  46  86 N13       30.23R
6HR MIN TEMP:  49; 6HR MAX TEMP:  57; 6HR PCP:  0.04;

DES MOINES IA  CLOUDY    54  42  64 N13       30.18R
6HR MIN TEMP:  54; 6HR MAX TEMP:  69;

DAVENPORT IA   FAIR      56  39  53 N13       30.05R
6HR MIN TEMP:  55; 6HR MAX TEMP:  71;

CHICAGO IL     CLOUDY    48  36  63 N21       30.04R
6HR MIN TEMP:  48; 6HR MAX TEMP:  59;

EAU CLAIRE WI  FAIR      36  34  92 CALM      30.20R
6HR MIN TEMP:  33; 6HR MAX TEMP:  54;

LA CROSSE WI   FAIR      46  34  62 N6        30.17F
6HR MIN TEMP:  46; 6HR MAX TEMP:  69;

$$

  *****  SOME NATIONAL WEATHER *****

CITY           SKY/WX    TMP DP  RH WIND       PRES   REMARKS
LA GUARDIA NY  LGT RAIN  52  48  86 NE12      30.09F
6HR MIN TEMP:  52; 6HR MAX TEMP:  59; 6HR PCP:  0.04;


USA.gov is the U.S. government's official web portal to all federal, state and local government web resources and services.